Location: Kirkland Lake
(48.1510°N, 80.0330°W)
Time: 06:17:47
(UTC-04:00)

ISS - Visible Passes

Search period start: 21 October 2019 00:00
Search period end: 31 October 2019 00:00
Orbit: 411 x 421 km, 51.6° (Epoch: 21 October)

Date Brightness Start Highest point End Pass type
(mag) Time Alt. Az. Time Alt. Az. Time Alt. Az.
24 Oct -1.2 07:00:58 10° S 07:03:35 21° SE 07:06:12 10° E visible
25 Oct -0.8 06:13:24 10° SSE 06:15:12 14° SE 06:16:58 10° ESE visible
26 Oct -2.7 06:59:37 10° SW 07:02:52 45° SSE 07:06:06 10° ENE visible
27 Oct -2.1 06:12:29 18° SSW 06:14:20 30° SE 06:17:21 10° E visible
28 Oct -1.3 05:26:18 19° SE 05:26:18 19° SE 05:28:23 10° E visible
28 Oct -3.8 06:59:13 12° WSW 07:02:15 90° NW 07:05:38 10° ENE visible
29 Oct -3.5 06:12:52 47° SSW 06:13:38 64° SSE 06:16:58 10° ENE visible
30 Oct -1.6 05:26:26 26° E 05:26:26 26° E 05:28:15 10° ENE visible
30 Oct -3.5 06:59:20 17° W 07:01:44 56° NNW 07:05:04 10° ENE visible
